Location: Buch
(49.7331°N, 12.1098°E)
Time: 08:43:53
(UTC+00:00)

Cosmos 1356 Rocket - Pass Details

Date: 12 May 2021
Orbit: 543 x 597 km, 81.2° (Epoch: 13 June)

Event Time Altitude Azimuth Distance (km) Brightness Sun altitude
Rises 22:42:29 0° 350° (N) 2,839 8.5 -21.7°
Reaches altitude 10° 22:44:43 10° 354° (N) 1,938 7.3 -21.7°
Maximum altitude 22:48:59 61° 75° (ENE) 680 3.7 -21.8°
Enters shadow 22:49:38 54° 117° (ESE) 733 3.7 -21.8°
